| time (UTC) | temp C | wind direction | speed KPH | gust KPH | rain 1hr cm | rain 24hr cm | rain mn cm | humidity % | barometer mb |
| 20260507095517 | 14 | 0 | 0.0 | 3.2 | 0.00 | 0.00 | 0.00 | 91 | 1015.6 |
| 20260507095014 | 14 | 225 | 0.0 | 3.2 | 0.00 | 0.00 | 0.00 | 91 | 1015.6 |
| 20260507094528 | 14 | 225 | 0.0 | 3.2 | 0.00 | 0.00 | 0.00 | 91 | 1015.6 |
| 20260507094015 | 14 | 226 | 0.0 | 3.2 | 0.00 | 0.00 | 0.00 | 91 | 1015.8 |
| 20260507093515 | 15 | 0 | 0.0 | 3.2 | 0.00 | 0.00 | 0.00 | 90 | 1015.8 |
| 20260507093030 | 15 | 0 | 0.0 | 3.2 | 0.00 | 0.00 | 0.00 | 90 | 1015.8 |
| 20260507092512 | 15 | 0 | 0.0 | 3.2 | 0.00 | 0.00 | 0.00 | 91 | 1015.9 |
| 20260507092014 | 15 | 205 | 1.6 | 3.2 | 0.00 | 0.00 | 0.00 | 90 | 1015.9 |
| 20260507091532 | 15 | 209 | 1.6 | 4.8 | 0.00 | 0.00 | 0.00 | 90 | 1016.0 |
| 20260507091015 | 15 | 205 | 1.6 | 4.8 | 0.00 | 0.00 | 0.00 | 90 | 1016.1 |
| 20260507090517 | 15 | 229 | 1.6 | 4.8 | 0.00 | 0.00 | 0.00 | 90 | 1016.0 |
| 20260507090033 | 15 | 194 | 3.2 | 4.8 | 0.00 | 0.00 | 0.00 | 90 | 1016.1 |
| 20260507085514 | 15 | 225 | 1.6 | 6.4 | 0.00 | 0.00 | 0.00 | 89 | 1016.2 |
| 20260507085015 | 15 | 246 | 3.2 | 6.4 | 0.00 | 0.00 | 0.00 | 89 | 1016.1 |
| 20260507084529 | 15 | 260 | 1.6 | 8.0 | 0.00 | 0.00 | 0.00 | 89 | 1016.2 |
| 20260507084014 | 15 | 246 | 4.8 | 8.0 | 0.00 | 0.00 | 0.00 | 89 | 1016.2 |
| 20260507083511 | 15 | 197 | 4.8 | 8.0 | 0.00 | 0.00 | 0.00 | 89 | 1016.2 |
| 20260507083029 | 15 | 224 | 4.8 | 9.7 | 0.00 | 0.00 | 0.00 | 89 | 1016.3 |
| 20260507082514 | 15 | 360 | 3.2 | 12.9 | 0.00 | 0.00 | 0.00 | 89 | 1016.3 |
| 20260507082012 | 15 | 233 | 6.4 | 12.9 | 0.00 | 0.00 | 0.00 | 89 | 1016.3 |
| 20260507081540 | 15 | 238 | 4.8 | 14.5 | 0.00 | 0.00 | 0.00 | 89 | 1016.2 |
| 20260507081015 | 15 | 238 | 6.4 | 14.5 | 0.00 | 0.00 | 0.00 | 89 | 1016.3 |
| 20260507080518 | 15 | 259 | 8.0 | 12.9 | 0.00 | 0.00 | 0.00 | 89 | 1016.2 |
| 20260507080031 | 15 | 207 | 6.4 | 17.7 | 0.00 | 0.00 | 0.00 | 89 | 1016.4 |
| 20260507075517 | 15 | 239 | 8.0 | 17.7 | 0.00 | 0.00 | 0.00 | 89 | 1016.5 |
| 20260507075015 | 15 | 221 | 8.0 | 16.1 | 0.00 | 0.00 | 0.00 | 89 | 1016.4 |
| 20260507074549 | 15 | 268 | 8.0 | 16.1 | 0.00 | 0.00 | 0.00 | 89 | 1016.5 |
| 20260507074014 | 15 | 360 | 9.7 | 17.7 | 0.00 | 0.00 | 0.00 | 89 | 1016.4 |
| 20260507073516 | 15 | 238 | 8.0 | 17.7 | 0.00 | 0.00 | 0.00 | 89 | 1016.6 |
| 20260507073029 | 15 | 236 | 8.0 | 17.7 | 0.00 | 0.00 | 0.00 | 89 | 1016.5 |
| 20260507072518 | 15 | 239 | 9.7 | 19.3 | 0.00 | 0.00 | 0.00 | 89 | 1016.5 |
| 20260507072014 | 15 | 233 | 8.0 | 19.3 | 0.00 | 0.00 | 0.00 | 89 | 1016.5 |
| 20260507071529 | 15 | 244 | 11.3 | 19.3 | 0.00 | 0.00 | 0.00 | 89 | 1016.5 |
| 20260507071015 | 15 | 204 | 8.0 | 16.1 | 0.00 | 0.00 | 0.00 | 90 | 1016.5 |
| 20260507070517 | 15 | 234 | 8.0 | 16.1 | 0.00 | 0.00 | 0.00 | 90 | 1016.5 |
| 20260507070032 | 15 | 190 | 9.7 | 16.1 | 0.00 | 0.00 | 0.00 | 91 | 1016.5 |
| 20260507065516 | 15 | 238 | 8.0 | 16.1 | 0.00 | 0.00 | 0.00 | 91 | 1016.5 |
| 20260507065014 | 15 | 229 | 6.4 | 11.3 | 0.00 | 0.00 | 0.00 | 91 | 1016.6 |
| 20260507064532 | 15 | 360 | 6.4 | 11.3 | 0.00 | 0.00 | 0.00 | 91 | 1016.7 |
| 20260507064015 | 15 | 250 | 6.4 | 11.3 | 0.00 | 0.00 | 0.00 | 91 | 1016.6 |
| 20260507063511 | 15 | 227 | 6.4 | 11.3 | 0.00 | 0.00 | 0.00 | 91 | 1016.7 |
| 20260507063030 | 14 | 220 | 4.8 | 11.3 | 0.00 | 0.00 | 0.00 | 91 | 1016.7 |
| 20260507062514 | 14 | 234 | 6.4 | 12.9 | 0.00 | 0.00 | 0.00 | 91 | 1016.7 |
| 20260507062014 | 14 | 240 | 6.4 | 12.9 | 0.00 | 0.00 | 0.00 | 91 | 1016.6 |
| 20260507061533 | 14 | 217 | 6.4 | 12.9 | 0.00 | 0.00 | 0.00 | 91 | 1016.7 |
| 20260507061014 | 15 | 254 | 6.4 | 12.9 | 0.00 | 0.00 | 0.00 | 91 | 1016.7 |
| 20260507060515 | 15 | 263 | 4.8 | 12.9 | 0.00 | 0.00 | 0.00 | 91 | 1016.7 |
| 20260507060029 | 15 | 250 | 4.8 | 16.1 | 0.00 | 0.00 | 0.00 | 91 | 1016.7 |
| 20260507055515 | 15 | 263 | 6.4 | 16.1 | 0.00 | 0.00 | 0.00 | 91 | 1016.8 |
| 20260507055014 | 15 | 250 | 11.3 | 16.1 | 0.00 | 0.00 | 0.00 | 91 | 1016.8 |
| 20260507054530 | 15 | 262 | 9.7 | 16.1 | 0.00 | 0.00 | 0.00 | 91 | 1017.0 |
| 20260507054012 | 15 | 236 | 8.0 | 14.5 | 0.00 | 0.00 | 0.00 | 91 | 1016.8 |
| 20260507053514 | 15 | 242 | 6.4 | 12.9 | 0.00 | 0.00 | 0.00 | 91 | 1016.9 |
| 20260507053032 | 15 | 264 | 6.4 | 14.5 | 0.00 | 0.00 | 0.00 | 90 | 1016.9 |
| 20260507052511 | 15 | 198 | 8.0 | 14.5 | 0.00 | 0.00 | 0.00 | 90 | 1017.0 |
| 20260507052015 | 15 | 242 | 9.7 | 14.5 | 0.00 | 0.00 | 0.00 | 90 | 1016.8 |
| 20260507051532 | 15 | 261 | 4.8 | 12.9 | 0.00 | 0.00 | 0.00 | 90 | 1017.0 |
| 20260507051022 | 15 | 221 | 6.4 | 11.3 | 0.00 | 0.00 | 0.00 | 90 | 1016.9 |
| 20260507050515 | 15 | 228 | 6.4 | 11.3 | 0.00 | 0.00 | 0.00 | 90 | 1016.9 |
| 20260507050029 | 15 | 236 | 4.8 | 12.9 | 0.00 | 0.00 | 0.00 | 89 | 1016.8 |
| 20260507045515 | 15 | 248 | 6.4 | 12.9 | 0.00 | 0.00 | 0.00 | 89 | 1016.9 |
| 20260507045016 | 15 | 240 | 8.0 | 16.1 | 0.00 | 0.00 | 0.00 | 89 | 1016.7 |
| 20260507044538 | 15 | 360 | 6.4 | 17.7 | 0.00 | 0.00 | 0.00 | 89 | 1016.6 |
| 20260507044015 | 15 | 252 | 11.3 | 19.3 | 0.00 | 0.00 | 0.00 | 88 | 1016.7 |
| 20260507043515 | 15 | 198 | 11.3 | 20.9 | 0.00 | 0.00 | 0.00 | 88 | 1016.6 |
| 20260507043032 | 15 | 252 | 12.9 | 24.1 | 0.00 | 0.00 | 0.00 | 88 | 1016.5 |
| 20260507042515 | 15 | 242 | 11.3 | 24.1 | 0.00 | 0.00 | 0.00 | 87 | 1016.5 |
| 20260507042015 | 15 | 222 | 8.0 | 16.1 | 0.00 | 0.00 | 0.00 | 88 | 1016.6 |
| 20260507041534 | 15 | 243 | 8.0 | 14.5 | 0.00 | 0.00 | 0.00 | 88 | 1016.5 |
| 20260507041016 | 15 | 221 | 8.0 | 14.5 | 0.00 | 0.00 | 0.00 | 88 | 1016.6 |
| 20260507040517 | 15 | 216 | 8.0 | 19.3 | 0.00 | 0.00 | 0.00 | 88 | 1016.4 |
| 20260507040036 | 15 | 246 | 8.0 | 19.3 | 0.00 | 0.00 | 0.00 | 88 | 1016.4 |
| 20260507035515 | 15 | 239 | 11.3 | 19.3 | 0.00 | 0.00 | 0.00 | 87 | 1016.4 |
| 20260507035016 | 15 | 281 | 11.3 | 19.3 | 0.00 | 0.00 | 0.00 | 87 | 1016.3 |
| 20260507034530 | 15 | 250 | 12.9 | 19.3 | 0.00 | 0.00 | 0.00 | 87 | 1016.2 |
| 20260507034015 | 15 | 169 | 8.0 | 19.3 | 0.00 | 0.00 | 0.00 | 87 | 1016.1 |
| 20260507033515 | 15 | 241 | 11.3 | 20.9 | 0.00 | 0.00 | 0.00 | 87 | 1016.2 |
| 20260507033033 | 15 | 256 | 9.7 | 20.9 | 0.00 | 0.00 | 0.00 | 86 | 1016.1 |
| 20260507032515 | 15 | 246 | 12.9 | 19.3 | 0.00 | 0.00 | 0.00 | 87 | 1016.2 |
| 20260507032020 | 15 | 255 | 8.0 | 24.1 | 0.00 | 0.00 | 0.00 | 87 | 1016.0 |
| 20260507031531 | 15 | 198 | 11.3 | 24.1 | 0.00 | 0.00 | 0.00 | 87 | 1016.0 |
| 20260507031015 | 15 | 269 | 14.5 | 29.0 | 0.00 | 0.00 | 0.00 | 86 | 1016.1 |
| 20260507030513 | 15 | 244 | 16.1 | 29.0 | 0.00 | 0.00 | 0.00 | 86 | 1015.9 |
| 20260507030033 | 16 | 232 | 12.9 | 22.5 | 0.00 | 0.00 | 0.00 | 86 | 1015.9 |
| 20260507025515 | 16 | 275 | 12.9 | 20.9 | 0.00 | 0.00 | 0.00 | 86 | 1015.8 |
| 20260507025016 | 16 | 202 | 16.1 | 22.5 | 0.00 | 0.00 | 0.00 | 87 | 1015.7 |
| 20260507024538 | 16 | 202 | 14.5 | 24.1 | 0.00 | 0.00 | 0.00 | 86 | 1015.7 |
| 20260507024016 | 16 | 251 | 11.3 | 27.4 | 0.00 | 0.00 | 0.00 | 86 | 1015.8 |
| 20260507023515 | 16 | 249 | 16.1 | 27.4 | 0.00 | 0.00 | 0.00 | 85 | 1015.7 |
| 20260507023030 | 16 | 247 | 16.1 | 25.7 | 0.00 | 0.00 | 0.00 | 85 | 1015.6 |
| 20260507022516 | 16 | 215 | 12.9 | 25.7 | 0.00 | 0.00 | 0.00 | 85 | 1015.7 |
| 20260507022018 | 16 | 239 | 14.5 | 25.7 | 0.00 | 0.00 | 0.00 | 84 | 1015.6 |
| 20260507021534 | 16 | 254 | 16.1 | 25.7 | 0.00 | 0.00 | 0.00 | 84 | 1015.4 |
| 20260507021015 | 16 | 263 | 16.1 | 25.7 | 0.00 | 0.00 | 0.00 | 83 | 1015.4 |
| 20260507020517 | 16 | 224 | 14.5 | 25.7 | 0.00 | 0.00 | 0.00 | 83 | 1015.5 |
| 20260507020030 | 16 | 229 | 16.1 | 25.7 | 0.00 | 0.00 | 0.00 | 83 | 1015.5 |
| 20260507015515 | 16 | 233 | 12.9 | 22.5 | 0.00 | 0.00 | 0.00 | 83 | 1015.6 |
| 20260507015015 | 16 | 254 | 12.9 | 27.4 | 0.00 | 0.00 | 0.00 | 83 | 1015.5 |
| 20260507014545 | 16 | 288 | 16.1 | 27.4 | 0.00 | 0.00 | 0.00 | 83 | 1015.6 |
| 20260507014015 | 16 | 253 | 16.1 | 24.1 | 0.00 | 0.00 | 0.00 | 83 | 1015.5 |
| 20260507013516 | 17 | 221 | 17.7 | 24.1 | 0.00 | 0.00 | 0.00 | 82 | 1015.5 |
| 20260507013032 | 17 | 252 | 14.5 | 27.4 | 0.00 | 0.00 | 0.00 | 83 | 1015.4 |
| 20260507012516 | 17 | 248 | 14.5 | 27.4 | 0.00 | 0.00 | 0.00 | 82 | 1015.5 |
| 20260507012017 | 17 | 234 | 14.5 | 25.7 | 0.00 | 0.00 | 0.00 | 82 | 1015.5 |
| 20260507011533 | 17 | 247 | 17.7 | 25.7 | 0.00 | 0.00 | 0.00 | 83 | 1015.5 |
| 20260507011015 | 16 | 250 | 17.7 | 29.0 | 0.00 | 0.00 | 0.00 | 83 | 1015.5 |
| 20260507010516 | 17 | 208 | 16.1 | 29.0 | 0.00 | 0.00 | 0.00 | 82 | 1015.5 |
| 20260507010033 | 17 | 239 | 16.1 | 27.4 | 0.00 | 0.00 | 0.00 | 82 | 1015.5 |
| 20260507005516 | 17 | 236 | 17.7 | 29.0 | 0.00 | 0.00 | 0.00 | 83 | 1015.4 |
| 20260507005017 | 17 | 238 | 17.7 | 29.0 | 0.00 | 0.00 | 0.00 | 83 | 1015.3 |
| 20260507004530 | 17 | 229 | 17.7 | 29.0 | 0.00 | 0.00 | 0.00 | 82 | 1015.4 |
| 20260507004020 | 17 | 234 | 14.5 | 24.1 | 0.00 | 0.00 | 0.00 | 80 | 1015.2 |
| 20260507003515 | 17 | 259 | 16.1 | 24.1 | 0.00 | 0.00 | 0.00 | 80 | 1015.4 |
| 20260507003033 | 17 | 246 | 16.1 | 24.1 | 0.00 | 0.00 | 0.00 | 80 | 1015.5 |
| 20260507002515 | 17 | 246 | 14.5 | 27.4 | 0.00 | 0.00 | 0.00 | 81 | 1015.5 |
| 20260507002015 | 17 | 247 | 17.7 | 27.4 | 0.00 | 0.00 | 0.00 | 81 | 1015.3 |
| 20260507001532 | 17 | 260 | 16.1 | 27.4 | 0.00 | 0.00 | 0.00 | 81 | 1015.3 |
| 20260507001017 | 17 | 257 | 19.3 | 25.7 | 0.00 | 0.00 | 0.00 | 81 | 1015.3 |
| 20260507000516 | 17 | 217 | 17.7 | 27.4 | 0.00 | 0.00 | 0.00 | 81 | 1015.3 |
| 20260507000036 | 17 | 258 | 16.1 | 27.4 | 0.00 | 0.00 | 0.00 | 81 | 1015.3 |
| 20260506235516 | 17 | 180 | 16.1 | 27.4 | 0.00 | 0.00 | 0.00 | 82 | 1015.3 |
| 20260506235015 | 17 | 263 | 12.9 | 27.4 | 0.00 | 0.00 | 0.00 | 82 | 1015.3 |
| 20260506234530 | 17 | 248 | 17.7 | 27.4 | 0.00 | 0.00 | 0.00 | 81 | 1015.4 |
| 20260506234015 | 17 | 223 | 16.1 | 25.7 | 0.00 | 0.00 | 0.00 | 80 | 1015.5 |
| 20260506233516 | 17 | 245 | 16.1 | 25.7 | 0.00 | 0.00 | 0.00 | 79 | 1015.6 |
| 20260506233035 | 18 | 246 | 14.5 | 25.7 | 0.00 | 0.00 | 0.00 | 78 | 1015.5 |
| 20260506232515 | 18 | 239 | 17.7 | 25.7 | 0.00 | 0.00 | 0.00 | 77 | 1015.6 |
| 20260506232016 | 18 | 176 | 11.3 | 25.7 | 0.00 | 0.00 | 0.00 | 78 | 1015.5 |
| 20260506231532 | 17 | 207 | 14.5 | 27.4 | 0.00 | 0.00 | 0.00 | 78 | 1015.5 |
| 20260506231018 | 17 | 195 | 16.1 | 27.4 | 0.00 | 0.00 | 0.00 | 80 | 1015.6 |
| 20260506230516 | 17 | 213 | 17.7 | 27.4 | 0.00 | 0.00 | 0.00 | 79 | 1015.7 |
| 20260506230031 | 17 | 189 | 16.1 | 27.4 | 0.00 | 0.00 | 0.00 | 77 | 1015.6 |
| 20260506225520 | 18 | 175 | 14.5 | 25.7 | 0.00 | 0.00 | 0.00 | 77 | 1015.6 |
| 20260506225016 | 17 | 218 | 16.1 | 25.7 | 0.00 | 0.00 | 0.00 | 78 | 1015.6 |
| 20260506224532 | 17 | 221 | 17.7 | 27.4 | 0.00 | 0.00 | 0.00 | 77 | 1015.8 |
| 20260506224016 | 18 | 178 | 16.1 | 27.4 | 0.00 | 0.00 | 0.00 | 78 | 1015.8 |
| 20260506223515 | 18 | 254 | 17.7 | 25.7 | 0.00 | 0.00 | 0.00 | 78 | 1015.9 |
| 20260506223032 | 18 | 249 | 16.1 | 25.7 | 0.00 | 0.00 | 0.00 | 78 | 1016.0 |
| 20260506222516 | 18 | 180 | 12.9 | 25.7 | 0.00 | 0.00 | 0.00 | 78 | 1016.1 |
| 20260506222018 | 18 | 252 | 14.5 | 25.7 | 0.00 | 0.00 | 0.00 | 78 | 1016.0 |
| 20260506221530 | 17 | 178 | 14.5 | 24.1 | 0.00 | 0.00 | 0.00 | 79 | 1016.1 |
| 20260506221019 | 17 | 182 | 17.7 | 27.4 | 0.00 | 0.00 | 0.00 | 79 | 1016.3 |
| 20260506220515 | 17 | 222 | 17.7 | 27.4 | 0.00 | 0.00 | 0.00 | 79 | 1016.3 |
| 20260506220030 | 17 | 194 | 16.1 | 27.4 | 0.00 | 0.00 | 0.00 | 78 | 1016.3 |
| 20260506215520 | 17 | 229 | 17.7 | 29.0 | 0.00 | 0.00 | 0.00 | 78 | 1016.4 |
| 20260506215018 | 17 | 187 | 17.7 | 29.0 | 0.00 | 0.00 | 0.00 | 78 | 1016.4 |
| 20260506214529 | 17 | 168 | 14.5 | 29.0 | 0.00 | 0.00 | 0.00 | 79 | 1016.5 |
| 20260506214015 | 17 | 271 | 16.1 | 29.0 | 0.00 | 0.00 | 0.00 | 78 | 1016.5 |
| 20260506213515 | 17 | 211 | 19.3 | 29.0 | 0.00 | 0.00 | 0.00 | 79 | 1016.6 |
| 20260506213031 | 17 | 190 | 17.7 | 25.7 | 0.00 | 0.00 | 0.00 | 78 | 1016.6 |
| 20260506212515 | 17 | 197 | 16.1 | 24.1 | 0.00 | 0.00 | 0.00 | 78 | 1016.6 |
| 20260506212015 | 17 | 251 | 16.1 | 25.7 | 0.00 | 0.00 | 0.00 | 78 | 1016.7 |
| 20260506211534 | 17 | 242 | 17.7 | 25.7 | 0.00 | 0.00 | 0.00 | 77 | 1016.6 |
| 20260506211015 | 17 | 279 | 14.5 | 25.7 | 0.00 | 0.00 | 0.00 | 79 | 1016.6 |
| 20260506210517 | 17 | 243 | 16.1 | 25.7 | 0.00 | 0.00 | 0.00 | 80 | 1016.7 |
| 20260506210032 | 17 | 240 | 16.1 | 25.7 | 0.00 | 0.00 | 0.00 | 79 | 1016.7 |
| 20260506205515 | 17 | 232 | 16.1 | 25.7 | 0.00 | 0.00 | 0.00 | 79 | 1016.7 |
| 20260506205015 | 17 | 225 | 17.7 | 25.7 | 0.00 | 0.00 | 0.00 | 80 | 1016.8 |
| 20260506204530 | 17 | 205 | 17.7 | 25.7 | 0.00 | 0.00 | 0.00 | 79 | 1016.8 |
| 20260506204014 | 17 | 196 | 16.1 | 25.7 | 0.00 | 0.00 | 0.00 | 80 | 1016.9 |
| 20260506203518 | 17 | 226 | 14.5 | 25.7 | 0.00 | 0.00 | 0.00 | 81 | 1017.0 |
| 20260506203031 | 17 | 229 | 16.1 | 25.7 | 0.00 | 0.00 | 0.00 | 80 | 1017.0 |
| 20260506202515 | 17 | 292 | 14.5 | 22.5 | 0.00 | 0.00 | 0.00 | 80 | 1016.9 |
| 20260506202016 | 17 | 222 | 11.3 | 22.5 | 0.00 | 0.00 | 0.00 | 81 | 1017.1 |
| 20260506201531 | 17 | 213 | 11.3 | 22.5 | 0.00 | 0.00 | 0.00 | 80 | 1017.1 |
| 20260506201014 | 17 | 205 | 11.3 | 22.5 | 0.00 | 0.00 | 0.00 | 80 | 1017.0 |
| 20260506200519 | 17 | 190 | 14.5 | 20.9 | 0.00 | 0.00 | 0.00 | 79 | 1017.2 |
| 20260506200030 | 17 | 288 | 12.9 | 24.1 | 0.00 | 0.00 | 0.00 | 80 | 1017.1 |
| 20260506195515 | 17 | 238 | 12.9 | 24.1 | 0.00 | 0.00 | 0.00 | 80 | 1017.1 |
| 20260506195016 | 17 | 221 | 16.1 | 24.1 | 0.00 | 0.00 | 0.00 | 80 | 1017.2 |
| 20260506194534 | 17 | 255 | 16.1 | 24.1 | 0.00 | 0.00 | 0.00 | 80 | 1017.3 |
| 20260506194016 | 17 | 187 | 16.1 | 24.1 | 0.00 | 0.00 | 0.00 | 79 | 1017.3 |
| 20260506193514 | 17 | 274 | 14.5 | 24.1 | 0.00 | 0.00 | 0.00 | 80 | 1017.3 |
| 20260506193032 | 17 | 228 | 16.1 | 24.1 | 0.00 | 0.00 | 0.00 | 78 | 1017.5 |
| 20260506192519 | 17 | 236 | 12.9 | 27.4 | 0.00 | 0.00 | 0.00 | 76 | 1017.5 |
| 20260506192015 | 17 | 184 | 16.1 | 27.4 | 0.00 | 0.00 | 0.00 | 78 | 1017.4 |
| 20260506191530 | 17 | 241 | 16.1 | 24.1 | 0.00 | 0.00 | 0.00 | 78 | 1017.6 |
| 20260506191014 | 17 | 192 | 12.9 | 24.1 | 0.00 | 0.00 | 0.00 | 80 | 1017.6 |
| 20260506190515 | 17 | 229 | 14.5 | 24.1 | 0.00 | 0.00 | 0.00 | 79 | 1017.6 |
| 20260506190030 | 17 | 280 | 12.9 | 24.1 | 0.00 | 0.00 | 0.00 | 78 | 1017.7 |
| 20260506185515 | 17 | 234 | 11.3 | 24.1 | 0.00 | 0.00 | 0.00 | 79 | 1017.7 |
| 20260506185015 | 17 | 222 | 12.9 | 24.1 | 0.00 | 0.00 | 0.00 | 79 | 1017.7 |
| 20260506184530 | 17 | 232 | 14.5 | 24.1 | 0.00 | 0.00 | 0.00 | 78 | 1017.7 |
| 20260506184015 | 17 | 210 | 12.9 | 20.9 | 0.00 | 0.00 | 0.00 | 78 | 1017.7 |
| 20260506183515 | 17 | 219 | 9.7 | 24.1 | 0.00 | 0.00 | 0.00 | 77 | 1017.7 |
| 20260506183030 | 17 | 187 | 12.9 | 24.1 | 0.00 | 0.00 | 0.00 | 77 | 1017.7 |
| 20260506182514 | 17 | 224 | 11.3 | 20.9 | 0.00 | 0.00 | 0.00 | 78 | 1017.8 |
| 20260506182014 | 17 | 222 | 12.9 | 20.9 | 0.00 | 0.00 | 0.00 | 80 | 1017.7 |
| 20260506181530 | 17 | 295 | 11.3 | 20.9 | 0.00 | 0.00 | 0.00 | 79 | 1017.7 |
| 20260506181020 | 16 | 243 | 12.9 | 20.9 | 0.00 | 0.00 | 0.00 | 79 | 1017.7 |
| 20260506180516 | 17 | 240 | 11.3 | 20.9 | 0.00 | 0.00 | 0.00 | 79 | 1017.7 |
| 20260506180045 | 17 | 235 | 14.5 | 20.9 | 0.00 | 0.00 | 0.00 | 79 | 1017.7 |
| 20260506175514 | 17 | 207 | 9.7 | 22.5 | 0.00 | 0.00 | 0.00 | 77 | 1017.9 |
| 20260506175014 | 17 | 187 | 11.3 | 22.5 | 0.00 | 0.00 | 0.00 | 78 | 1017.9 |
| 20260506174529 | 16 | 252 | 11.3 | 16.1 | 0.00 | 0.00 | 0.00 | 78 | 1017.6 |
| 20260506174014 | 17 | 190 | 9.7 | 16.1 | 0.00 | 0.00 | 0.00 | 77 | 1017.7 |
| 20260506173515 | 17 | 188 | 9.7 | 19.3 | 0.00 | 0.00 | 0.00 | 76 | 1017.7 |
| 20260506173034 | 17 | 257 | 9.7 | 19.3 | 0.00 | 0.00 | 0.00 | 76 | 1017.5 |
| 20260506172515 | 17 | 238 | 11.3 | 17.7 | 0.00 | 0.00 | 0.00 | 74 | 1017.5 |
| 20260506172015 | 17 | 182 | 8.0 | 17.7 | 0.00 | 0.00 | 0.00 | 74 | 1017.5 |
| 20260506171533 | 17 | 191 | 9.7 | 17.7 | 0.00 | 0.00 | 0.00 | 75 | 1017.6 |
| 20260506171015 | 17 | 213 | 9.7 | 17.7 | 0.00 | 0.00 | 0.00 | 74 | 1017.6 |
| 20260506170516 | 17 | 241 | 9.7 | 17.7 | 0.00 | 0.00 | 0.00 | 73 | 1017.6 |
| 20260506170032 | 18 | 217 | 4.8 | 12.9 | 0.00 | 0.00 | 0.00 | 73 | 1017.5 |
| 20260506165515 | 18 | 229 | 6.4 | 16.1 | 0.00 | 0.00 | 0.00 | 73 | 1017.4 |
| 20260506165015 | 18 | 194 | 8.0 | 16.1 | 0.00 | 0.00 | 0.00 | 71 | 1017.3 |
| 20260506164532 | 18 | 69 | 3.2 | 9.7 | 0.00 | 0.00 | 0.00 | 72 | 1017.4 |
| 20260506164014 | 17 | 59 | 1.6 | 6.4 | 0.00 | 0.00 | 0.00 | 74 | 1017.4 |
| 20260506163514 | 17 | 137 | 1.6 | 6.4 | 0.00 | 0.00 | 0.00 | 73 | 1017.4 |
| 20260506163050 | 17 | 271 | 1.6 | 4.8 | 0.00 | 0.00 | 0.00 | 73 | 1017.3 |
| 20260506162519 | 17 | 325 | 0.0 | 6.4 | 0.00 | 0.00 | 0.00 | 74 | 1017.4 |
| 20260506162014 | 17 | 160 | 1.6 | 6.4 | 0.00 | 0.00 | 0.00 | 72 | 1017.5 |
| 20260506161533 | 18 | 134 | 3.2 | 8.0 | 0.00 | 0.00 | 0.00 | 72 | 1017.6 |
| 20260506161014 | 18 | 117 | 3.2 | 6.4 | 0.00 | 0.00 | 0.00 | 74 | 1017.5 |
| 20260506160514 | 17 | 83 | 1.6 | 6.4 | 0.00 | 0.00 | 0.00 | 75 | 1017.7 |
| 20260506160034 | 17 | 50 | 1.6 | 8.0 | 0.00 | 0.00 | 0.00 | 76 | 1017.8 |
| 20260506155515 | 17 | 45 | 4.8 | 9.7 | 0.00 | 0.00 | 0.00 | 75 | 1017.7 |
| 20260506155017 | 17 | 28 | 3.2 | 11.3 | 0.00 | 0.00 | 0.00 | 75 | 1017.6 |
| 20260506154534 | 17 | 74 | 3.2 | 11.3 | 0.00 | 0.00 | 0.00 | 76 | 1017.6 |
| 20260506154017 | 17 | 132 | 1.6 | 6.4 | 0.00 | 0.00 | 0.00 | 77 | 1017.5 |
| 20260506153514 | 17 | 63 | 3.2 | 6.4 | 0.00 | 0.00 | 0.00 | 79 | 1017.5 |
| 20260506153030 | 17 | 64 | 1.6 | 6.4 | 0.00 | 0.00 | 0.00 | 79 | 1017.5 |
| 20260506152514 | 17 | 126 | 3.2 | 6.4 | 0.00 | 0.00 | 0.00 | 80 | 1017.6 |
| 20260506152023 | 16 | 0 | 0.0 | 6.4 | 0.00 | 0.00 | 0.00 | 80 | 1017.6 |
| 20260506151530 | 16 | 76 | 3.2 | 6.4 | 0.00 | 0.00 | 0.00 | 80 | 1017.7 |
| 20260506151014 | 16 | 96 | 0.0 | 6.4 | 0.00 | 0.00 | 0.00 | 81 | 1017.6 |
| 20260506150514 | 16 | 120 | 1.6 | 6.4 | 0.00 | 0.00 | 0.00 | 82 | 1017.7 |
| 20260506150033 | 16 | 93 | 0.0 | 3.2 | 0.00 | 0.00 | 0.00 | 83 | 1017.8 |
| 20260506145517 | 16 | 0 | 1.6 | 4.8 | 0.00 | 0.00 | 0.00 | 83 | 1017.7 |
| 20260506145015 | 15 | 43 | 0.0 | 4.8 | 0.00 | 0.00 | 0.00 | 84 | 1017.7 |
| 20260506144531 | 15 | 74 | 1.6 | 6.4 | 0.00 | 0.00 | 0.00 | 85 | 1017.8 |
| 20260506144015 | 15 | 65 | 1.6 | 6.4 | 0.00 | 0.00 | 0.00 | 85 | 1017.7 |
| 20260506143517 | 15 | 65 | 3.2 | 4.8 | 0.00 | 0.00 | 0.00 | 85 | 1017.7 |
| 20260506143045 | 15 | 67 | 1.6 | 4.8 | 0.00 | 0.00 | 0.00 | 86 | 1017.6 |
| 20260506142514 | 14 | 71 | 1.6 | 4.8 | 0.00 | 0.00 | 0.00 | 87 | 1017.7 |
| 20260506142014 | 14 | 68 | 1.6 | 4.8 | 0.00 | 0.00 | 0.00 | 87 | 1017.6 |
| 20260506141535 | 14 | 61 | 3.2 | 4.8 | 0.00 | 0.00 | 0.00 | 87 | 1017.5 |
| 20260506141015 | 13 | 49 | 3.2 | 4.8 | 0.00 | 0.00 | 0.00 | 87 | 1017.5 |
| 20260506140518 | 13 | 55 | 1.6 | 3.2 | 0.00 | 0.00 | 0.00 | 88 | 1017.5 |
| 20260506140030 | 13 | 46 | 1.6 | 3.2 | 0.00 | 0.00 | 0.00 | 89 | 1017.5 |
| 20260506135514 | 13 | 39 | 1.6 | 3.2 | 0.00 | 0.00 | 0.00 | 90 | 1017.4 |
| 20260506135014 | 13 | 39 | 0.0 | 3.2 | 0.00 | 0.00 | 0.00 | 90 | 1017.5 |
| 20260506134531 | 12 | 36 | 0.0 | 3.2 | 0.00 | 0.00 | 0.00 | 90 | 1017.3 |
| 20260506134020 | 12 | 36 | 0.0 | 3.2 | 0.00 | 0.00 | 0.00 | 90 | 1017.3 |
| 20260506133516 | 12 | 36 | 1.6 | 3.2 | 0.00 | 0.00 | 0.00 | 90 | 1017.3 |
| 20260506133030 | 12 | 36 | 0.0 | 3.2 | 0.00 | 0.00 | 0.00 | 90 | 1017.2 |
| 20260506132515 | 12 | 0 | 0.0 | 3.2 | 0.00 | 0.00 | 0.00 | 90 | 1017.2 |
| 20260506132015 | 12 | 36 | 0.0 | 3.2 | 0.00 | 0.00 | 0.00 | 90 | 1017.0 |
| 20260506131532 | 12 | 0 | 0.0 | 3.2 | 0.00 | 0.00 | 0.00 | 90 | 1017.0 |
| 20260506131014 | 12 | 36 | 0.0 | 3.2 | 0.00 | 0.00 | 0.00 | 90 | 1016.8 |
| 20260506130518 | 12 | 36 | 0.0 | 3.2 | 0.00 | 0.00 | 0.00 | 90 | 1016.8 |
| 20260506130031 | 12 | 30 | 0.0 | 3.2 | 0.00 | 0.00 | 0.00 | 89 | 1017.0 |
| 20260506125514 | 12 | 0 | 0.0 | 3.2 | 0.00 | 0.00 | 0.00 | 89 | 1016.7 |
| 20260506125014 | 12 | 30 | 0.0 | 3.2 | 0.00 | 0.00 | 0.00 | 89 | 1016.6 |
| 20260506124532 | 12 | 65 | 0.0 | 3.2 | 0.00 | 0.00 | 0.00 | 89 | 1016.6 |
| 20260506124014 | 12 | 65 | 0.0 | 3.2 | 0.00 | 0.00 | 0.00 | 89 | 1016.6 |
| 20260506123514 | 12 | 0 | 0.0 | 3.2 | 0.00 | 0.00 | 0.00 | 89 | 1016.5 |
| 20260506123033 | 12 | 0 | 0.0 | 3.2 | 0.00 | 0.00 | 0.00 | 89 | 1016.4 |
| 20260506122515 | 12 | 0 | 0.0 | 3.2 | 0.00 | 0.00 | 0.00 | 89 | 1016.5 |
| 20260506122014 | 12 | 0 | 0.0 | 3.2 | 0.00 | 0.00 | 0.00 | 89 | 1016.6 |
| 20260506121539 | 12 | 65 | 0.0 | 3.2 | 0.00 | 0.00 | 0.00 | 89 | 1016.5 |
| 20260506121015 | 12 | 65 | 0.0 | 3.2 | 0.00 | 0.00 | 0.00 | 89 | 1016.6 |
| 20260506120516 | 12 | 65 | 1.6 | 3.2 | 0.00 | 0.00 | 0.00 | 89 | 1016.5 |
| 20260506120031 | 12 | 65 | 0.0 | 3.2 | 0.00 | 0.00 | 0.00 | 89 | 1016.5 |
| 20260506115514 | 12 | 65 | 0.0 | 1.6 | 0.00 | 0.00 | 0.00 | 89 | 1016.4 |
| 20260506115014 | 12 | 65 | 0.0 | 3.2 | 0.00 | 0.00 | 0.00 | 89 | 1016.3 |
| 20260506114539 | 12 | 65 | 0.0 | 3.2 | 0.00 | 0.00 | 0.00 | 89 | 1016.3 |
| 20260506114016 | 12 | 65 | 0.0 | 3.2 | 0.00 | 0.00 | 0.00 | 89 | 1016.4 |
| 20260506113515 | 12 | 0 | 0.0 | 0.0 | 0.00 | 0.00 | 0.00 | 89 | 1016.4 |
| 20260506113030 | 12 | 0 | 0.0 | 0.0 | 0.00 | 0.00 | 0.00 | 89 | 1016.5 |
| 20260506112519 | 12 | 0 | 0.0 | 3.2 | 0.00 | 0.00 | 0.00 | 89 | 1016.3 |
| 20260506112018 | 12 | 0 | 0.0 | 3.2 | 0.00 | 0.00 | 0.00 | 89 | 1016.3 |
| 20260506111537 | 12 | 0 | 0.0 | 0.0 | 0.00 | 0.00 | 0.00 | 89 | 1016.4 |
| 20260506111014 | 12 | 0 | 0.0 | 1.6 | 0.00 | 0.00 | 0.00 | 89 | 1016.4 |
| 20260506110518 | 13 | 0 | 0.0 | 3.2 | 0.00 | 0.00 | 0.00 | 89 | 1016.3 |
| 20260506110033 | 13 | 65 | 0.0 | 3.2 | 0.00 | 0.00 | 0.00 | 89 | 1016.4 |
| 20260506105516 | 13 | 65 | 1.6 | 3.2 | 0.00 | 0.03 | 0.00 | 89 | 1016.3 |
| 20260506105015 | 13 | 59 | 0.0 | 3.2 | 0.00 | 0.03 | 0.00 | 89 | 1016.3 |
| 20260506104532 | 13 | 0 | 0.0 | 3.2 | 0.00 | 0.03 | 0.00 | 89 | 1016.2 |
| 20260506104015 | 13 | 59 | 1.6 | 1.6 | 0.00 | 0.03 | 0.00 | 89 | 1016.3 |
| 20260506103516 | 13 | 59 | 1.6 | 3.2 | 0.00 | 0.03 | 0.00 | 89 | 1016.3 |
| 20260506103030 | 13 | 59 | 1.6 | 3.2 | 0.00 | 0.03 | 0.00 | 88 | 1016.3 |
| 20260506102518 | 13 | 61 | 1.6 | 3.2 | 0.00 | 0.03 | 0.00 | 88 | 1016.4 |
| 20260506102013 | 13 | 0 | 0.0 | 3.2 | 0.00 | 0.03 | 0.00 | 88 | 1016.3 |
| 20260506101534 | 13 | 0 | 0.0 | 3.2 | 0.00 | 0.03 | 0.00 | 88 | 1016.3 |
| 20260506101014 | 13 | 0 | 0.0 | 1.6 | 0.00 | 0.03 | 0.00 | 88 | 1016.3 |
| 20260506100514 | 13 | 0 | 0.0 | 3.2 | 0.00 | 0.03 | 0.00 | 88 | 1016.3 |
| 20260506100032 | 13 | 0 | 0.0 | 3.2 | 0.00 | 0.03 | 0.00 | 88 | 1016.4 |